sat.trackr.live / text

‹ back to catalog

STARLINK-11251 [DTC]

NORAD 60930 · 2024-155G

PAYLOAD ACTIVE UNKNOWN

§ Identity

Operator
Country
US
Launch date
2024-08-31
Launch site
AFWTR
Launch vehicle
Mass (kg)
RCS (m²)

Purposes: comms

External: N2YO · Heavens-Above · Gunter

§ Orbital elements

Epoch: 2026-09-21T18:59:16.736352Z

Period
91.74 min
Inclination
53.1603°
Eccentricity
0.0001021
Mean motion
15.69708077 rev/d
Perigee alt
359.0 km
Apogee alt
360.4 km
Semi-major
6,737.9 km
B*
-1.6519e-7
RAAN
94.4492°
Arg perigee
73.8069°
Mean anomaly
286.3061°
Rev number
11,920

§ Raw data

STARLINK-11251 [DTC]1 60930U 24155G   26264.79116593 -.00000608  00000+0 -16519-6 0  99992 60930  53.1603  94.4492 0001021  73.8069 286.3061 15.69708077119206

JSON: /api/v1/satellites/60930 · /tle

For live sub-satellite position, see the globe view (requires WebGL).

§ Visibility from observer

Set your observer location to see the next 7 days of passes ≥ 10°. The values pass through the URL so the page stays shareable.

No JS? Fill the form by hand. The geolocation button needs JavaScript.